Regional Weather Roundup
Issued by NWS Grand Forks, ND

Home | Current Version | Previous Version | Graphics & Text | Print | Product List | Glossary On
Versions: 1 2 3 4 5 6 7 8 9 10 11 12 13 14 15 16 17 18 19 20 21 22 23 24 25 26 27 28 29 30 31 32 33 34 35 36 37 38 39 40 41 42 43 44 45 46 47 48 49 50
000
ASUS43 KFGF 240331
RWRFGF
PRAIRIE TO PINES  WEATHER ROUNDUP
NATIONAL WEATHER SERVICE EASTERN NORTH DAKOTA/GRAND FORKS ND
1000 PM CDT THU OCT 23 2014

 **SATELLITE DATA USED TO AUGMENT SKY COVER AT AUTOMATED STATIONS**
 *****  WEATHER ACROSS EASTERN NORTH DAKOTA  *****

CITY           SKY/WX    TMP DP  RH WIND       PRES   REMARKS
GRAND FORKS    MOCLDY    50  38  63 S8        29.77F
GRAND FRKS AFB MOCLDY    49  39  69 S9        29.77F
GRAND FRKS NWS   N/A     48 N/A N/A S7          N/A
DEVILS LAKE    CLOUDY    55  37  50 SW9       29.74S
FARGO          PTCLDY    54  40  59 S12       29.82S
WAHPETON ARPT  MOCLDY    50  36  57 S10       29.86S
$$

 ***** WEATHER ACROSS CENTRAL AND WESTERN NORTH DAKOTA  *****

CITY           SKY/WX    TMP DP  RH WIND       PRES   REMARKS
BISMARCK       MOCLDY    52  33  48 W6        29.83R
MINOT          PTCLDY    54  32  43 SW12      29.75S
JAMESTOWN      MOCLDY    53  34  48 S9        29.81S
MINOT AFB      PTCLDY    50  35  55 W10       29.74F
GARRISON         N/A     50  35  56 W6        29.78R
WILLISTON      CLOUDY    49  35  58 W3        29.78S
DICKINSON      CLOUDY    50  31  48 CALM      29.81F
HETTINGER      CLOUDY    51  27  39 SW5       29.86F
$$

 *****  OTHER AIRPORT OBSERVATIONS IN OUR AREA  *****

CITY           SKY/WX    TMP DP  RH WIND       PRES   REMARKS
WALHALLA         N/A     54  36  50 CALM      29.74F
GRAFTON AIRPOR FAIR      46  41  81 S8        29.76S
VALLEY CITY AR FAIR      48  45  87 S9        29.82S
CANDO          FAIR      46  37  71 CALM      29.75S
CAVALIER APRT  FAIR      52  39  62 S6        29.74F
GWINNER        CLEAR     54  45  71 SW13      29.85S
ROLLA          FAIR      46  32  57 S7        29.75F
 ***** THE ABOVE OBSERVATIONS ARE NON NWS ARE NOT QUALITY
       CONTROLLED AND MAY MIS-REPORT RAIN FOR SNOW...
$$

  *****  WEATHER ACROSS NORTHERN MINNESOTA  *****

CITY           SKY/WX    TMP DP  RH WIND       PRES   REMARKS
FLAG ISLAND    MOCLDY    52  45  76 S7        29.76F
WARROAD        MOCLDY    50  43  76 S6        29.78F
ROSEAU         CLOUDY    52  43  71 S8        29.77F
HALLOCK        CLOUDY    48  39  71 SE8       29.75F
THF RVR FALLS  MOCLDY    52  39  62 S8        29.80S
BAUDETTE       PTCLDY    48  37  65 S3        29.80F
WASKISH        PTCLDY    54  37  54 S6        29.81F
CROOKSTON      PTCLDY    54  41  62 S8        29.80S
STEPHEN NDAWN    N/A     54  43  66 S7          N/A
GREENBUSH NDAW   N/A     52  43  71 S7          N/A
$$
  *****  WEATHER ACROSS CENTRAL AND WEST MINNESOTA  *****

CITY           SKY/WX    TMP DP  RH WIND       PRES   REMARKS
FOSSTON        MOCLDY    48  37  66 S3        29.83S
BEMIDJI        MOCLDY    54  38  54 S7        29.85R
PARK RAPIDS    PTCLDY    52  41  66 S9        29.86F
ELBOW LAKE     FAIR      49  41  73 S9        29.89S
WADENA         PTCLDY    52  41  66 S6        29.89R
DETROIT LAKES  PTCLDY    52  39  62 S6        29.87S
MOORHEAD       PTCLDY    54  39  58 S8        29.84S
FERGUS FALLS   MOCLDY    52  39  62 S10       29.88S
MORRIS MN      PTCLDY    46  41  81 S9        29.90R
STAPLES        PTCLDY    48  39  71 S6        29.90R
$$
  *****  WEATHER ELSEWHERE ACROSS MINNESOTA  *****

CITY           SKY/WX    TMP DP  RH WIND       PRES   REMARKS
DULUTH         PTCLDY    49  46  90 S7        29.93F
INTRNTL FALLS  CLEAR     48  38  68 CALM      29.83F
ELY            PTCLDY    46  45  93 S6        29.90F
CLOQUET        FAIR      48  46  93 S3        29.93F FOG
WHEATON        PTCLDY    54  43  66 S10       29.90R
BRAINERD       CLEAR     49  38  65 S9        29.91F
HIBBING        CLEAR     39  36  89 CALM      29.90F FOG
ALEXANDRIA     CLEAR     53  40  61 S9        29.92F
SAINT CLOUD    CLEAR     48  39  71 SE3       29.93F
MINNEAPOLIS    CLEAR     52  49  89 SE6       29.98S
$$

  *****  WEATHER ACROSS SOUTH DAKOTA  *****

CITY           SKY/WX    TMP DP  RH WIND       PRES   REMARKS
SIOUX FALLS    MOCLDY    59  46  62 S13       29.94F
BROOKINGS      NOT AVBL
WATERTOWN      CLOUDY    51  44  77 S7        29.90S
HURON          MOCLDY    49  42  77 SE8       29.86F
SISSETON         N/A     50  42  74 SW7       29.87R
ABERDEEN       MOCLDY    47  42  83 S9        29.86F
MITCHELL       MOCLDY    55  47  74 S10       29.88F
PIERRE         MOCLDY    48  35  60 N5        29.85R
MOBRIDGE       MOCLDY    54  40  59 E6        29.84F
RAPID CITY     MOCLDY    48  32  53 NW3       29.92F
$$

  *****  SOME WEATHER IN NEARBY STATES *****

CITY           SKY/WX    TMP DP  RH WIND       PRES   REMARKS
GLASGOW MT     MOCLDY    57  37  47 S3        29.77R
GREAT FALLS MT CLOUDY    54  38  54 SW17      29.83R
CHEYENNE WY    CLOUDY    53  30  41 CALM      30.14F
SCOTTSBLUFF NE PTCLDY    49  35  58 E5        30.03R
OMAHA NE       MOCLDY    57  50  77 CALM      30.02S
DES MOINES IA  CLEAR     56  54  93 S7        30.05R FOG
DAVENPORT IA   CLOUDY    56  48  74 W5        30.06R
CHICAGO IL     CLOUDY    55  42  61 S8        30.07F
EAU CLAIRE WI  CLOUDY    51  49  92 S7        30.01S
LA CROSSE WI   CLOUDY    50  49  96 SE5       30.03F FOG
$$

  *****  SOME NATIONAL WEATHER *****

CITY           SKY/WX    TMP DP  RH WIND       PRES   REMARKS
LA GUARDIA NY  CLOUDY    53  47  79 NW9       29.77S
RALEIGH NC     CLEAR     56  41  57 VRB5      30.03R
ATLANTA GA     CLOUDY    56  45  66 NW7       30.05S
NEW ORLEANS LA MOCLDY    63  52  67 NW3       30.08R
OKLAHOMA CITY  PTCLDY    66  59  78 SE8       30.10R
ALBUQUERQUE NM PTCLDY    66  35  31 S5        30.25R
SALT LAKE CITY CLOUDY    57  38  48 SE5       30.04F
LOS ANGELES CA CLEAR     69  65  86 W6        29.93R
BOISE ID       LGT RAIN  54  50  87 N5        30.08R
SEATTLE WA     MOCLDY    50  45  83 S9        29.95R
$$

*** WEATHER ACROSS MANITOBA...SASKATCHEWAN AND ONTARIO ***
                ***ONTARIO***

CITY           SKY/WX    TMP DP  RH WIND       PRES   REMARKS
GERALDTON      LGT RAIN  43  43 100 S2        29.92F
THUNDER BAY    CLOUDY    48  46  93 SW7       29.93F
SIOUX LOOKOUT  CLOUDY    50  48  93 S6        29.81
TORONTO        CLEAR     46  41  81 N12G17    30.05S
BIG TROUT LK   CLOUDY    48  45  87 S5        29.72F
PICKLE LAKE    NOT AVBL
DRYDEN         CLOUDY    54  46  76 S8        29.80S
KENORA         PTCLDY    52  43  71 S8        29.78S
$$
                *** MANITOBA***

CITY           SKY/WX    TMP DP  RH WIND       PRES   REMARKS
BRANDON        CLOUDY    54  39  58 SW10      29.70F
DAUPHIN        CLEAR     54  43  66 SW5       29.63F
ISLAND LAKE    CLOUDY    48  48 100 SW7       29.67F
PILOT MOUND      N/A     48  32  53 S5          N/A
THE PAS        FOG       43  43 100 SE7       29.61  VSB 1/2
THOMPSON       DRZL/FOG N/A N/A N/A CALM        N/A  VSB 1/2
WINNIPEG       CLOUDY    54  39  58 S13       29.72F
LYNN LAKE      LGT RAIN  36  36 100 E8        29.60F FOG
CHURCHILL      LGT RAIN  36  36 100 E25G37    29.80F FOG
GILLAM         LGT RAIN  41  39  93 NE6       29.61F VSB 3/8
$$
                ***SASKATCHEWAN***

CITY           SKY/WX    TMP DP  RH WIND       PRES   REMARKS
ESTEVAN        MOCLDY    48  37  66 SW9       29.72F
KINDERSLEY     CLOUDY    54  39  58 SW12G20   29.56F
LLOYDMINSTER   CLOUDY    50  28  43 NW9       29.50S
PRINCE ALBERT  PTCLDY    39  37  93 E3        29.49S
REGINA         MOCLDY    48  41  76 SE8       29.66F
YORKTON        MOCLDY    50  41  71 SW12      29.62F
N. BATTLEFORD  CLEAR     43  34  70 W3        29.54R
LA RONGE       CLOUDY    46  43  87 SE9       29.49F
SASKATOON      PTCLDY    50  39  66 SW10      29.55F
SWIFT CURRENT  MOCLDY    52  41  66 SW15G21   29.64F
$$
NOTE: THESE ARE AUTOMATED STATIONS WITH LIMITED QUALITY CONTROL
      "FAIR" INDICATES FEW OR NO CLOUDS BELOW 12,000 FEET WITH NO
      SIGNIFICANT WEATHER AND/OR OBSTRUCTIONS TO VISIBILITY.
      SKY/WX - SKY CONDITION AND SIGNIFICANT WEATHER.
      TMP - AIR TEMPERATURE.    DP   - DEWPOINT TEMPERATURE.
      RH  - RELATIVE HUMIDITY.  PRES - PRESSURE.
      HX  - HEAT INDEX.         WCI  - WIND CHILL INDEX.
$



USA.gov is the U.S. government's official web portal to all federal, state and local government web resources and services.